TimeMDT,TemperatureF,Dew PointF,Humidity,Sea Level PressureIn,VisibilityMPH,Wind Direction,Wind SpeedMPH,Gust SpeedMPH,PrecipitationIn,Events,Conditions,WindDirDegrees,DateUTC
12:15 AM,62.6,42.8,48,30.52,10.0,ESE,8.1,-,N/A,,Scattered Clouds,110,2013-07-27 06:15:00
12:35 AM,60.8,44.6,55,30.52,10.0,Calm,Calm,-,N/A,,Clear,0,2013-07-27 06:35:00
12:55 AM,60.8,42.8,52,30.51,10.0,ESE,4.6,-,N/A,,Clear,120,2013-07-27 06:55:00
1:15 AM,60.8,37.4,42,30.51,10.0,East,6.9,-,N/A,,Clear,80,2013-07-27 07:15:00
1:35 AM,60.8,42.8,52,30.51,10.0,ESE,9.2,-,N/A,,Clear,120,2013-07-27 07:35:00
1:55 AM,60.8,42.8,52,30.51,10.0,East,6.9,-,N/A,,Clear,90,2013-07-27 07:55:00
2:15 AM,60.8,44.6,55,30.51,10.0,Calm,Calm,-,N/A,,Clear,0,2013-07-27 08:15:00
2:35 AM,60.8,44.6,55,30.51,10.0,East,8.1,-,N/A,,Clear,100,2013-07-27 08:35:00
2:55 AM,60.8,42.8,52,30.51,10.0,Calm,Calm,-,N/A,,Clear,0,2013-07-27 08:55:00
3:15 AM,60.8,44.6,55,30.51,10.0,Calm,Calm,-,N/A,,Clear,0,2013-07-27 09:15:00
3:35 AM,59.0,44.6,59,30.51,10.0,East,5.8,-,N/A,,Clear,90,2013-07-27 09:35:00
3:55 AM,59.0,44.6,59,30.51,10.0,East,4.6,-,N/A,,Clear,90,2013-07-27 09:55:00
4:15 AM,59.0,42.8,55,30.51,10.0,East,4.6,-,N/A,,Clear,90,2013-07-27 10:15:00
4:35 AM,59.0,42.8,55,30.51,10.0,East,5.8,-,N/A,,Clear,90,2013-07-27 10:35:00
4:55 AM,59.0,42.8,55,30.51,10.0,East,5.8,-,N/A,,Clear,90,2013-07-27 10:55:00
5:15 AM,59.0,42.8,55,30.50,10.0,ESE,11.5,-,N/A,,Clear,110,2013-07-27 11:15:00
5:35 AM,57.2,42.8,59,30.50,10.0,East,6.9,-,N/A,,Clear,100,2013-07-27 11:35:00
5:55 AM,57.2,42.8,59,30.50,10.0,Calm,Calm,-,N/A,,Clear,0,2013-07-27 11:55:00
6:15 AM,57.2,42.8,59,30.50,10.0,Calm,Calm,-,N/A,,Clear,0,2013-07-27 12:15:00
6:35 AM,59.0,42.8,55,30.50,10.0,ESE,5.8,-,N/A,,Clear,120,2013-07-27 12:35:00
6:55 AM,57.2,42.8,59,30.50,10.0,Calm,Calm,-,N/A,,Clear,0,2013-07-27 12:55:00
7:15 AM,59.0,42.8,55,30.51,10.0,Calm,Calm,-,N/A,,Clear,0,2013-07-27 13:15:00
7:35 AM,59.0,42.8,55,30.51,10.0,NNE,3.5,-,N/A,,Clear,20,2013-07-27 13:35:00
7:55 AM,60.8,42.8,52,30.51,10.0,East,3.5,-,N/A,,Clear,80,2013-07-27 13:55:00
8:15 AM,62.6,44.6,52,30.50,10.0,East,3.5,-,N/A,,Clear,100,2013-07-27 14:15:00
8:35 AM,62.6,44.6,52,30.50,10.0,East,3.5,-,N/A,,Clear,80,2013-07-27 14:35:00
8:55 AM,64.4,42.8,45,30.50,10.0,Calm,Calm,-,N/A,,Clear,0,2013-07-27 14:55:00
9:15 AM,64.4,42.8,45,30.49,10.0,Calm,Calm,-,N/A,,Clear,0,2013-07-27 15:15:00
9:35 AM,68.0,42.8,40,30.48,10.0,North,3.5,-,N/A,,Clear,360,2013-07-27 15:35:00
9:55 AM,68.0,42.8,40,30.48,10.0,NW,3.5,-,N/A,,Clear,310,2013-07-27 15:55:00
10:15 AM,68.0,41.0,37,30.47,10.0,Calm,Calm,-,N/A,,Clear,0,2013-07-27 16:15:00
10:35 AM,69.8,41.0,35,30.46,10.0,WNW,3.5,-,N/A,,Clear,290,2013-07-27 16:35:00
10:55 AM,69.8,42.8,38,30.45,10.0,SSW,4.6,-,N/A,,Clear,210,2013-07-27 16:55:00
11:15 AM,69.8,41.0,35,30.45,10.0,West,4.6,-,N/A,,Scattered Clouds,280,2013-07-27 17:15:00
11:35 AM,71.6,41.0,33,30.44,10.0,West,4.6,-,N/A,,Clear,260,2013-07-27 17:35:00
11:55 AM,71.6,42.8,35,30.43,10.0,WSW,9.2,-,N/A,,Clear,250,2013-07-27 17:55:00
12:15 PM,71.6,42.8,35,30.42,10.0,West,11.5,-,N/A,,Clear,260,2013-07-27 18:15:00
12:35 PM,69.8,42.8,38,30.42,10.0,West,11.5,-,N/A,,Scattered Clouds,270,2013-07-27 18:35:00
12:55 PM,69.8,42.8,38,30.42,10.0,WSW,9.2,-,N/A,Thunderstorm,Thunderstorm,250,2013-07-27 18:55:00
1:15 PM,64.4,46.4,52,30.42,10.0,ESE,12.7,19.6,N/A,Rain-Thunderstorm,Light Thunderstorms and Rain,110,2013-07-27 19:15:00
1:35 PM,66.2,44.6,46,30.41,10.0,ESE,8.1,-,N/A,Thunderstorm,Mostly Cloudy,110,2013-07-27 19:35:00
1:55 PM,64.4,46.4,52,30.42,10.0,ESE,4.6,-,N/A,Rain-Thunderstorm,Light Thunderstorms and Rain,120,2013-07-27 19:55:00
2:15 PM,66.2,48.2,52,30.40,10.0,South,6.9,-,N/A,Thunderstorm,Mostly Cloudy,180,2013-07-27 20:15:00
2:35 PM,64.4,44.6,49,30.40,10.0,Calm,Calm,-,N/A,Rain-Thunderstorm,Light Thunderstorms and Rain,0,2013-07-27 20:35:00
2:55 PM,59.0,50.0,72,30.40,7.0,Calm,Calm,-,0.02,Rain-Thunderstorm,Rain,0,2013-07-27 20:55:00
3:15 PM,55.4,51.8,88,30.38,4.0,North,3.5,-,0.03,Rain,Light Rain,10,2013-07-27 21:15:00
3:35 PM,59.0,50.0,72,30.37,7.0,NNE,4.6,-,0.05,Rain,Rain,30,2013-07-27 21:35:00
3:55 PM,62.6,51.8,68,30.36,10.0,Calm,Calm,-,0.06,Rain,Light Rain,0,2013-07-27 21:55:00
4:15 PM,64.4,50.0,59,30.36,10.0,Calm,Calm,-,N/A,,Mostly Cloudy,0,2013-07-27 22:15:00
4:35 PM,66.2,44.6,46,30.35,10.0,SSE,12.7,17.3,N/A,,Mostly Cloudy,160,2013-07-27 22:35:00
4:55 PM,66.2,44.6,46,30.34,10.0,East,3.5,-,N/A,,Overcast,80,2013-07-27 22:55:00
5:15 PM,66.2,44.6,46,30.34,10.0,SE,5.8,-,N/A,,Overcast,130,2013-07-27 23:15:00
5:35 PM,64.4,44.6,49,30.34,10.0,Calm,Calm,-,N/A,,Overcast,0,2013-07-27 23:35:00
5:55 PM,64.4,46.4,52,30.34,10.0,WNW,3.5,-,N/A,Rain-Thunderstorm,Light Thunderstorms and Rain,290,2013-07-27 23:55:00
6:15 PM,62.6,48.2,59,30.33,10.0,Calm,Calm,-,N/A,Rain-Thunderstorm,Light Thunderstorms and Rain,0,2013-07-28 00:15:00
6:35 PM,60.8,51.8,72,30.32,7.0,Calm,Calm,-,0.01,Rain-Thunderstorm,Light Thunderstorms and Rain,0,2013-07-28 00:35:00
6:55 PM,59.0,50.0,72,30.33,5.0,Calm,Calm,-,0.03,Rain-Thunderstorm,Heavy Thunderstorms and Rain,0,2013-07-28 00:55:00
7:15 PM,59.0,51.8,77,30.33,10.0,Calm,Calm,-,0.01,Thunderstorm,Overcast,0,2013-07-28 01:15:00
7:35 PM,60.8,50.0,68,30.34,10.0,ESE,6.9,-,0.01,Rain-Thunderstorm,Light Thunderstorms and Rain,110,2013-07-28 01:35:00
7:55 PM,60.8,46.4,59,30.34,10.0,SE,5.8,-,0.01,Thunderstorm,Overcast,140,2013-07-28 01:55:00
8:15 PM,59.0,50.0,72,30.33,10.0,Calm,Calm,-,N/A,Thunderstorm,Overcast,0,2013-07-28 02:15:00
8:35 PM,59.0,50.0,72,30.33,10.0,East,5.8,-,N/A,Thunderstorm,Overcast,100,2013-07-28 02:35:00
8:55 PM,59.0,50.0,72,30.33,10.0,ESE,5.8,-,N/A,,Light Drizzle,110,2013-07-28 02:55:00
9:15 PM,57.2,50.0,77,30.34,10.0,Calm,Calm,-,N/A,,Overcast,0,2013-07-28 03:15:00
9:35 PM,57.2,50.0,77,30.35,10.0,West,3.5,-,N/A,Rain,Light Rain,270,2013-07-28 03:35:00
9:55 PM,55.4,50.0,82,30.35,10.0,Calm,Calm,-,N/A,,Overcast,0,2013-07-28 03:55:00
10:15 PM,55.4,51.8,88,30.36,10.0,ESE,5.8,-,N/A,,Overcast,110,2013-07-28 04:15:00
10:35 PM,55.4,51.8,88,30.36,10.0,East,5.8,-,N/A,,Overcast,100,2013-07-28 04:35:00
10:55 PM,55.4,51.8,88,30.35,10.0,ESE,3.5,-,N/A,,Overcast,120,2013-07-28 04:55:00
11:15 PM,55.4,51.8,88,30.36,7.0,Calm,Calm,-,N/A,Rain,Light Rain,0,2013-07-28 05:15:00
11:35 PM,53.6,51.8,94,30.35,10.0,Calm,Calm,-,N/A,,Light Drizzle,0,2013-07-28 05:35:00
11:55 PM,53.6,51.8,94,30.35,10.0,Calm,Calm,-,N/A,Rain,Light Rain,0,2013-07-28 05:55:00